This is the latest recevied weather packets stored in our database for station/object KI5RAB. If no packets are shown the sender has not sent any weather packets the latest 10 day(s).
| Time | Temp. | Humidity | Pressure | Rain* | Wind** | Luminosity | Snow |
|---|---|---|---|---|---|---|---|
| 1777743396 | 21.11° C | 47% | 1025.3 hPa | 0 mm | - | 733 W/m² | - |
| 1777743093 | 21.11° C | 48% | 1025.5 hPa | 0 mm | - | 729 W/m² | - |
| 1777742790 | 21.11° C | 46% | 1025.7 hPa | 0 mm | - | 723 W/m² | - |
| 1777742487 | 20.56° C | 47% | 1025.8 hPa | 0 mm | - | 718 W/m² | - |
| 1777742183 | 21.11° C | 47% | 1025.9 hPa | 0 mm | - | 715 W/m² | - |
| 1777741880 | 20.56° C | 49% | 1025.8 hPa | 0 mm | - | 707 W/m² | - |
| 1777741577 | 20.56° C | 49% | 1025.9 hPa | 0 mm | - | 701 W/m² | - |
| 1777741274 | 20.56° C | 49% | 1025.8 hPa | 0 mm | - | 694 W/m² | - |
| 1777740970 | 20.56° C | 50% | 1026 hPa | 0 mm | - | 688 W/m² | - |
| 1777740668 | 20° C | 50% | 1026 hPa | 0 mm | - | 681 W/m² | - |
| 1777740363 | 20° C | 50% | 1025.9 hPa | 0 mm | - | 673 W/m² | - |
| 1777740060 | 20° C | 50% | 1025.9 hPa | 0 mm | - | 665 W/m² | - |
| 1777739756 | 20° C | 50% | 1025.9 hPa | 0 mm | - | 656 W/m² | - |
| 1777739453 | 20.56° C | 49% | 1026.1 hPa | 0 mm | - | 645 W/m² | - |
| 1777739150 | 20° C | 51% | 1026 hPa | 0 mm | - | 636 W/m² | - |
| 1777738847 | 20° C | 49% | 1026.1 hPa | 0 mm | - | 627 W/m² | - |
| 1777738544 | 19.44° C | 50% | 1026 hPa | 0 mm | - | 618 W/m² | - |
| 1777738242 | 19.44° C | 51% | 1025.9 hPa | 0 mm | - | 607 W/m² | - |
| 1777737940 | 20° C | 52% | 1026.2 hPa | 0 mm | - | 598 W/m² | - |
| 1777737638 | 19.44° C | 52% | 1026 hPa | 0 mm | - | 588 W/m² | - |
| 1777737331 | 20° C | 53% | 1025.9 hPa | 0 mm | - | 576 W/m² | - |
| 1777737027 | 18.89° C | 55% | 1025.9 hPa | 0 mm | - | 565 W/m² | - |
| 1777736722 | 18.89° C | 57% | 1025.9 hPa | 0 mm | - | 552 W/m² | - |
| 1777736089 | 18.33° C | 58% | 1025.9 hPa | 0 mm | - | 521 W/m² | - |
| 1777735786 | 17.78° C | 60% | 1025.7 hPa | 0 mm | - | 511 W/m² | - |
* Rain latest hour (hover to see other rain measurements)
** Current wind speed in m/s (hover to see current wind gust speed)